Time,TemperatureF,DewpointF,PressureIn,WindDirection,WindDirectionDegrees,WindSpeedMPH,WindSpeedGustMPH,Humidity,HourlyPrecipIn,Conditions,Clouds,dailyrainin,SolarRadiationWatts/m^2,SoftwareType,DateUTC
2013-08-15 00:02:00,51.0,49.0,-100.00,NE,52,0.0,0.0,93,0.00,,,0.00,0.000000,,2013-08-15 05:02:00,
2013-08-15 00:42:00,51.0,49.0,-100.00,NE,52,0.0,1.0,92,0.00,,,0.00,0.000000,,2013-08-15 05:42:00,
2013-08-15 00:52:00,51.0,49.0,-100.00,NE,52,0.0,1.0,92,0.00,,,0.00,0.000000,,2013-08-15 05:52:00,
2013-08-15 01:02:00,51.0,49.0,-100.00,NE,52,0.0,1.0,92,0.00,,,0.00,0.000000,,2013-08-15 06:02:00,
2013-08-15 01:42:00,50.0,49.0,-100.00,NE,52,0.0,1.0,95,0.00,,,0.00,0.000000,,2013-08-15 06:42:00,
2013-08-15 01:52:00,50.0,49.0,-100.00,NE,52,0.0,1.0,95,0.00,,,0.00,0.000000,,2013-08-15 06:52:00,
2013-08-15 02:02:00,50.0,49.0,-100.00,NE,52,0.0,1.0,95,0.00,,,0.00,0.000000,,2013-08-15 07:02:00,
2013-08-15 02:42:00,49.0,48.0,-100.00,NE,52,0.0,0.0,95,0.00,,,0.00,0.000000,,2013-08-15 07:42:00,
2013-08-15 02:52:00,49.0,48.0,-100.00,NE,52,0.0,0.0,95,0.00,,,0.00,0.000000,,2013-08-15 07:52:00,
2013-08-15 03:02:00,49.0,48.0,-100.00,NE,52,0.0,0.0,95,0.00,,,0.00,0.000000,,2013-08-15 08:02:00,
2013-08-15 03:42:00,50.0,49.0,-100.00,NE,52,0.0,0.0,95,0.00,,,0.00,0.000000,,2013-08-15 08:42:00,
2013-08-15 03:52:00,50.0,49.0,-100.00,NE,52,0.0,0.0,95,0.00,,,0.00,0.000000,,2013-08-15 08:52:00,
2013-08-15 04:01:00,50.0,49.0,-100.00,NE,52,0.0,0.0,95,0.00,,,0.00,0.000000,,2013-08-15 09:01:00,
2013-08-15 04:42:00,48.0,47.0,-100.00,NE,52,0.0,0.0,97,0.00,,,0.00,0.000000,,2013-08-15 09:42:00,
2013-08-15 04:53:00,48.0,47.0,-100.00,NE,52,0.0,0.0,97,0.00,,,0.00,0.000000,,2013-08-15 09:53:00,
2013-08-15 05:03:00,48.0,47.0,-100.00,NE,52,0.0,0.0,97,0.00,,,0.00,0.000000,,2013-08-15 10:03:00,
2013-08-15 05:42:00,50.0,49.0,-100.00,NE,52,0.0,3.0,98,0.00,,,0.00,0.000000,,2013-08-15 10:42:00,
2013-08-15 05:52:00,50.0,49.0,-100.00,NE,52,0.0,3.0,98,0.00,,,0.00,0.000000,,2013-08-15 10:52:00,
2013-08-15 06:02:00,50.0,49.0,-100.00,NE,52,0.0,3.0,98,0.00,,,0.00,0.000000,,2013-08-15 11:02:00,
2013-08-15 06:42:00,50.0,49.0,-100.00,ESE,107,0.0,3.0,97,0.00,,,0.00,0.000000,,2013-08-15 11:42:00,
2013-08-15 06:52:00,50.0,49.0,-100.00,ESE,107,0.0,3.0,97,0.00,,,0.00,0.000000,,2013-08-15 11:52:00,
2013-08-15 07:01:00,50.0,49.0,-100.00,ESE,107,0.0,3.0,97,0.00,,,0.00,0.000000,,2013-08-15 12:01:00,
2013-08-15 07:42:00,52.0,51.0,-100.00,ESE,106,0.0,1.0,98,0.00,,,0.00,33.000000,,2013-08-15 12:42:00,
2013-08-15 07:52:00,52.0,51.0,-100.00,ESE,106,0.0,1.0,98,0.00,,,0.00,33.000000,,2013-08-15 12:52:00,
2013-08-15 08:01:00,52.0,51.0,-100.00,ESE,106,0.0,1.0,98,0.00,,,0.00,33.000000,,2013-08-15 13:01:00,
2013-08-15 08:42:00,62.0,55.0,-100.00,WSW,254,2.0,4.0,79,0.00,,,0.00,150.000000,,2013-08-15 13:42:00,
2013-08-15 08:52:00,62.0,55.0,-100.00,WSW,254,2.0,4.0,79,0.00,,,0.00,150.000000,,2013-08-15 13:52:00,
2013-08-15 09:01:00,62.0,55.0,-100.00,WSW,254,2.0,4.0,79,0.00,,,0.00,150.000000,,2013-08-15 14:01:00,
2013-08-15 09:47:00,69.0,56.0,-100.00,NW,304,3.0,7.0,63,0.00,,,0.00,349.000000,,2013-08-15 14:47:00,
2013-08-15 09:55:00,69.0,56.0,-100.00,NW,304,3.0,7.0,63,0.00,,,0.00,349.000000,,2013-08-15 14:55:00,
2013-08-15 10:04:00,69.0,56.0,-100.00,NW,304,3.0,7.0,63,0.00,,,0.00,349.000000,,2013-08-15 15:04:00,
2013-08-15 10:43:00,72.0,53.0,-100.00,NW,322,6.0,13.0,52,0.00,,,0.00,489.000000,,2013-08-15 15:43:00,
2013-08-15 10:54:00,72.0,53.0,-100.00,NW,322,6.0,13.0,52,0.00,,,0.00,489.000000,,2013-08-15 15:54:00,
2013-08-15 11:03:00,72.0,53.0,-100.00,NW,322,6.0,13.0,52,0.00,,,0.00,489.000000,,2013-08-15 16:03:00,
2013-08-15 11:05:00,74.0,52.0,-100.00,NW,325,5.0,10.0,47,0.00,,,0.00,501.000000,,2013-08-15 16:05:00,
2013-08-15 11:44:00,74.0,52.0,-100.00,NW,325,5.0,10.0,47,0.00,,,0.00,501.000000,,2013-08-15 16:44:00,
2013-08-15 11:55:00,74.0,52.0,-100.00,NW,325,5.0,10.0,47,0.00,,,0.00,501.000000,,2013-08-15 16:55:00,
2013-08-15 12:05:00,75.0,49.0,-100.00,NW,319,7.0,14.0,40,0.00,,,0.00,673.000000,,2013-08-15 17:05:00,
2013-08-15 12:55:00,75.0,49.0,-100.00,NW,319,7.0,14.0,40,0.00,,,0.00,673.000000,,2013-08-15 17:55:00,
2013-08-15 13:00:00,-999.0,-99.9,-100.00,NW,319,7.0,14.0,-999,-99.99,,,-99.99,673.000000,,2013-08-15 18:00:00,
2013-08-15 13:05:00,-999.0,-99.9,-100.00,NW,313,6.0,13.0,-999,0.00,,,0.00,636.000000,,2013-08-15 18:05:00,
2013-08-15 13:40:00,-999.0,-99.9,-100.00,NW,313,6.0,13.0,42,0.00,,,0.00,636.000000,,2013-08-15 18:40:00,
2013-08-15 13:49:00,75.0,50.0,-100.00,NW,313,6.0,13.0,42,0.00,,,0.00,636.000000,,2013-08-15 18:49:00,
2013-08-15 14:05:00,78.0,47.0,-100.00,WNW,282,6.0,15.0,34,0.00,,,0.00,590.000000,,2013-08-15 19:05:00,
2013-08-15 14:34:00,-999.0,-99.9,-100.00,WNW,282,6.0,15.0,-999,-99.99,,,-99.99,590.000000,,2013-08-15 19:34:00,
2013-08-15 14:49:00,78.0,47.0,-100.00,WNW,282,6.0,15.0,34,0.00,,,0.00,590.000000,,2013-08-15 19:49:00,
2013-08-15 15:46:00,78.0,48.0,-100.00,WNW,286,6.0,14.0,35,0.00,,,0.00,675.000000,,2013-08-15 20:46:00,
2013-08-15 16:05:00,81.0,47.0,-100.00,WNW,285,5.0,15.0,31,0.00,,,0.00,789.000000,,2013-08-15 21:05:00,
2013-08-15 16:49:00,81.0,47.0,-100.00,WNW,285,5.0,15.0,31,0.00,,,0.00,789.000000,,2013-08-15 21:49:00,
2013-08-15 16:57:00,81.0,47.0,-100.00,WNW,285,5.0,15.0,31,0.00,,,0.00,789.000000,,2013-08-15 21:57:00,
2013-08-15 17:05:00,79.0,47.0,-100.00,NW,321,6.0,13.0,33,0.00,,,0.00,621.000000,,2013-08-15 22:05:00,
2013-08-15 17:49:00,79.0,47.0,-100.00,NW,321,6.0,13.0,33,0.00,,,0.00,621.000000,,2013-08-15 22:49:00,
2013-08-15 17:58:00,79.0,47.0,-100.00,NW,321,6.0,13.0,33,0.00,,,0.00,621.000000,,2013-08-15 22:58:00,
2013-08-15 18:05:00,77.0,49.0,-100.00,West,274,3.0,8.0,37,0.00,,,0.00,154.000000,,2013-08-15 23:05:00,
2013-08-15 18:48:00,77.0,49.0,-100.00,West,274,3.0,8.0,37,0.00,,,0.00,154.000000,,2013-08-15 23:48:00,
2013-08-15 18:55:00,77.0,49.0,-100.00,West,274,3.0,8.0,37,0.00,,,0.00,154.000000,,2013-08-15 23:55:00,
2013-08-15 19:05:00,75.0,48.0,-100.00,WNW,290,2.0,9.0,39,0.00,,,0.00,136.000000,,2013-08-16 00:05:00,
2013-08-15 19:46:00,75.0,48.0,-100.00,WNW,290,2.0,9.0,39,0.00,,,0.00,136.000000,,2013-08-16 00:46:00,
2013-08-15 19:52:00,75.0,48.0,-100.00,WNW,290,2.0,9.0,39,0.00,,,0.00,136.000000,,2013-08-16 00:52:00,
2013-08-15 20:43:00,-999.0,-99.9,-100.00,West,268,0.0,-999.0,-999,-99.99,,,-99.99,,,2013-08-16 01:43:00,
2013-08-15 20:54:00,68.0,51.0,-100.00,West,268,0.0,4.0,55,0.00,,,0.00,25.000000,,2013-08-16 01:54:00,
2013-08-15 21:02:00,68.0,51.0,-100.00,West,268,0.0,4.0,55,0.00,,,0.00,25.000000,,2013-08-16 02:02:00,
2013-08-15 22:53:00,53.0,49.0,-100.00,WNW,296,0.0,0.0,86,0.00,,,0.00,0.000000,,2013-08-16 03:53:00,
2013-08-15 23:03:00,53.0,49.0,-100.00,WNW,296,0.0,0.0,86,0.00,,,0.00,0.000000,,2013-08-16 04:03:00,